#timestamp,LO_Frequency,Hit,Temp,Hum 
1487448015.7,286046964.9,Y,0.0,0.0
1487448035.6,286047003.5,N,0.0,0.0
1487448055.4,286047005.9,N,0.0,0.0
1487448075.2,286047005.1,N,0.0,0.0
1487448095.1,286047006.7,N,0.0,0.0
1487448096.0,286047006.7,N,0.0,0.0
1487448115.8,286047006.5,N,0.0,0.0
1487448135.6,286047009.1,N,0.0,0.0
1487448155.5,286047008.7,N,0.0,0.0
1487448175.3,286047006.8,N,0.0,0.0
1487448195.1,286047008.6,N,0.0,0.0
1487448215.9,286047010.4,N,0.0,0.0
1487448235.7,286047012.3,N,0.0,0.0
1487448255.5,286047012.3,N,0.0,0.0
1487448275.4,286047013.7,N,0.0,0.0
1487448295.2,286047016.3,N,0.0,0.0
1487448315.0,286047018.9,N,0.0,0.0
1487448315.9,286047018.9,N,0.0,0.0
1487448335.8,286047019.8,N,0.0,0.0
1487448355.6,286047018.1,N,0.0,0.0
1487448375.4,286047017.8,N,0.0,0.0
1487448395.2,286047021.6,N,0.0,0.0
1487448415.1,286047017.7,N,0.0,0.0
1487448416.0,286047017.7,N,0.0,0.0
1487448435.8,286047014.6,N,0.0,0.0
1487448455.6,286047011.6,N,0.0,0.0
1487448475.5,286047014.4,N,0.0,0.0
1487448495.3,286047015.3,N,0.0,0.0
1487448515.1,286047011.5,N,0.0,0.0
1487448535.9,286047014.8,N,0.0,0.0
1487448555.7,286047020.3,N,0.0,0.0
1487448575.5,286047019.5,N,0.0,0.0
1487448595.4,286047021.3,N,0.0,0.0
1487448615.2,286047019.2,N,0.0,0.0
1487448635.0,286047021.5,N,0.0,0.0
1487448635.9,286047021.5,N,0.0,0.0
1487448655.8,286047021.7,N,0.0,0.0
1487448675.6,286047019.8,N,0.0,0.0
1487448695.4,286047017.7,N,0.0,0.0
1487448715.3,286047019.5,N,0.0,0.0
1487448735.1,286047019.2,N,0.0,0.0
1487448736.0,286047019.2,N,0.0,0.0
1487448755.8,286047023.2,N,0.0,0.0
1487448775.7,286047026.4,N,0.0,0.0
1487448795.5,286047026.0,N,0.0,0.0
1487448815.3,286047024.0,N,0.0,0.0
1487448835.2,286047023.0,N,0.0,0.0
1487448855.9,286047022.4,N,0.0,0.0
1487448875.7,286047022.8,N,0.0,0.0
1487448895.5,286047023.0,N,0.0,0.0
1487448915.4,286047022.6,N,0.0,0.0
1487448935.2,286047023.9,N,0.0,0.0
1487448955.0,286047023.3,N,0.0,0.0
1487448955.9,286047023.3,N,0.0,0.0
1487448975.8,286047019.7,N,0.0,0.0
1487448995.6,286047019.5,N,0.0,0.0
1487449015.4,286047021.7,N,0.0,0.0
1487449035.3,286047021.8,N,0.0,0.0
1487449055.1,286047019.6,N,0.0,0.0
1487449075.8,286047021.5,N,0.0,0.0
1487449095.7,286047021.7,N,0.0,0.0
1487449115.5,286047023.1,N,0.0,0.0
1487449135.3,286047019.1,N,0.0,0.0
1487449155.2,286047019.4,N,0.0,0.0
1487449175.9,286047019.6,N,0.0,0.0
1487449195.7,286047018.9,N,0.0,0.0
1487449215.6,286047019.2,N,0.0,0.0
1487449235.4,286047017.3,N,0.0,0.0
1487449255.2,286047021.7,N,0.0,0.0
1487449275.1,286047020.7,N,0.0,0.0
1487449276.0,286047020.7,N,0.0,0.0
1487449295.8,286047022.1,N,0.0,0.0
1487449315.6,286047023.3,N,0.0,0.0
1487449335.5,286047023.5,N,0.0,0.0
1487449355.3,286047024.9,N,0.0,0.0
1487449375.1,286047023.9,N,0.0,0.0
1487449395.8,286047025.6,N,0.0,0.0
1487449415.7,286047027.4,N,0.0,0.0
1487449435.5,286047030.9,N,0.0,0.0
1487449455.3,286047029.3,N,0.0,0.0
1487449475.2,286047029.0,N,0.0,0.0
1487449495.0,286047028.9,N,0.0,0.0
1487449495.9,286047028.9,N,0.0,0.0
1487449515.7,286047028.8,N,0.0,0.0
1487449535.6,286047031.5,N,0.0,0.0
1487449555.4,286047029.8,N,0.0,0.0
1487449575.2,286047029.5,N,0.0,0.0
1487449595.1,286047029.9,N,0.0,0.0
1487449596.0,286047029.9,N,0.0,0.0
1487449615.8,286047029.9,N,0.0,0.0
1487449635.6,286047028.5,N,0.0,0.0
1487449655.5,286047031.5,N,0.0,0.0
1487449675.3,286047028.7,N,0.0,0.0
1487449695.1,286047030.0,N,0.0,0.0
1487449715.9,286047022.2,N,0.0,0.0
1487449735.7,286047026.3,N,0.0,0.0
1487449755.5,286047029.4,N,0.0,0.0
1487449775.4,286047032.9,N,0.0,0.0
1487449795.2,286047033.2,N,0.0,0.0
1487449815.0,286047030.5,N,0.0,0.0
1487449815.9,286047030.5,N,0.0,0.0
1487449835.8,286047030.3,N,0.0,0.0
1487449855.6,286047032.9,N,0.0,0.0
1487449875.4,286047029.0,N,0.0,0.0
1487449895.3,286047031.2,N,0.0,0.0
1487449915.1,286047032.3,N,0.0,0.0
1487449916.0,286047032.3,N,0.0,0.0
1487449935.8,286047032.2,N,0.0,0.0
1487449955.7,286047036.3,N,0.0,0.0
1487449975.5,286047035.3,N,0.0,0.0
1487449995.3,286047035.9,N,0.0,0.0
1487450015.1,286047033.5,N,0.0,0.0
1487450035.9,286047035.7,N,0.0,0.0
1487450055.7,286047039.6,N,0.0,0.0
1487450075.5,286047039.4,N,0.0,0.0
1487450095.4,286047041.0,N,0.0,0.0
1487450115.2,286047038.5,N,0.0,0.0
1487450135.0,286047040.9,N,0.0,0.0
1487450135.9,286047040.9,N,0.0,0.0
1487450155.8,286047042.7,N,0.0,0.0
1487450175.6,286047041.8,N,0.0,0.0
1487450195.4,286047045.7,N,0.0,0.0
1487450215.3,286047043.3,N,0.0,0.0
1487450235.1,286047044.8,N,0.0,0.0
1487450255.8,286047045.5,N,0.0,0.0
1487450275.7,286047047.6,N,0.0,0.0
1487450295.5,286047044.5,N,0.0,0.0
1487450315.3,286047045.3,N,0.0,0.0
1487450335.2,286047045.2,N,0.0,0.0
1487450355.9,286047044.8,N,0.0,0.0
1487450375.7,286047047.5,N,0.0,0.0
1487450395.6,286047049.2,N,0.0,0.0
1487450415.4,286047046.4,N,0.0,0.0
1487450435.2,286047048.5,N,0.0,0.0
1487450455.1,286047048.5,N,0.0,0.0
1487450456.0,286047048.5,N,0.0,0.0
1487450475.8,286047048.5,N,0.0,0.0
1487450495.6,286047048.4,N,0.0,0.0
1487450515.5,286047050.1,N,0.0,0.0
1487450535.3,286047050.3,N,0.0,0.0
1487450555.1,286047048.0,N,0.0,0.0
1487450575.9,286047048.3,N,0.0,0.0
1487450595.7,286047051.6,N,0.0,0.0
1487450615.5,286047054.0,Y,0.0,0.0
1487450635.4,286047029.2,N,0.0,0.0
1487450655.2,286047030.6,N,0.0,0.0
1487450675.0,286047031.0,N,0.0,0.0
1487450675.9,286047031.0,N,0.0,0.0
1487450695.8,286047030.6,N,0.0,0.0
1487450715.6,286047030.3,N,0.0,0.0
1487450735.4,286047030.2,N,0.0,0.0
1487450755.3,286047033.1,N,0.0,0.0
1487450775.1,286047033.7,N,0.0,0.0
1487450776.0,286047033.7,N,0.0,0.0
1487450795.8,286047034.7,Y,0.0,0.0
1487450815.7,286047006.0,N,0.0,0.0
1487450835.5,286047007.6,N,0.0,0.0
1487450855.3,286047005.0,N,0.0,0.0
1487450875.2,286047007.1,N,0.0,0.0
1487450895.9,286047006.5,N,0.0,0.0
1487450915.7,286047010.8,N,0.0,0.0
1487450935.5,286047013.8,N,0.0,0.0
1487450955.4,286047011.7,N,0.0,0.0
1487450975.2,286047006.5,N,0.0,0.0
1487450995.0,286047009.6,N,0.0,0.0
1487450995.9,286047009.6,N,0.0,0.0
1487451015.8,286047009.4,N,0.0,0.0
1487451035.6,286047009.6,N,0.0,0.0
1487451055.4,286047013.5,N,0.0,0.0
1487451075.3,286047012.1,N,0.0,0.0
1487451095.1,286047012.4,N,0.0,0.0
1487451115.8,286047010.0,N,0.0,0.0
1487451135.7,286047011.9,N,0.0,0.0
1487451155.5,286047009.3,N,0.0,0.0
1487451175.3,286047010.5,N,0.0,0.0
1487451195.2,286047011.9,N,0.0,0.0
1487451215.9,286047011.4,N,0.0,0.0
1487451235.7,286047011.1,N,0.0,0.0
1487451255.6,286047011.5,N,0.0,0.0
1487451275.4,286047012.3,N,0.0,0.0
1487451295.2,286047011.8,N,0.0,0.0
1487451315.1,286047009.6,N,0.0,0.0
1487451316.0,286047009.6,N,0.0,0.0
1487451335.8,286047010.2,N,0.0,0.0
1487451355.6,286047013.7,N,0.0,0.0
1487451375.5,286047013.8,N,0.0,0.0
1487451395.3,286047013.0,N,0.0,0.0
1487451415.1,286047014.3,N,0.0,0.0
1487451435.8,286047017.1,N,0.0,0.0
1487451455.7,286047012.9,N,0.0,0.0
1487451475.5,286047014.8,N,0.0,0.0
1487451495.3,286047015.5,N,0.0,0.0
1487451515.2,286047016.8,N,0.0,0.0
1487451535.9,286047015.7,N,0.0,0.0
1487451555.7,286047016.0,N,0.0,0.0
1487451575.6,286047019.8,N,0.0,0.0
1487451595.4,286047019.9,N,0.0,0.0
